Time,TemperatureF,DewpointF,PressureIn,WindDirection,WindDirectionDegrees,WindSpeedMPH,WindSpeedGustMPH,Humidity,HourlyPrecipIn,Conditions,Clouds,dailyrainin,SolarRadiationWatts/m^2,SoftwareType,DateUTC
2013-10-04 00:47:00,54.8,54.0,30.07,WNW,288,0.0,0.0,96,0.00,,,0.00,0,weatherlink.com 1.10,2013-10-04 04:47:00,
2013-10-04 01:02:00,54.8,54.0,30.07,WNW,288,0.0,0.0,96,0.00,,,0.00,0,weatherlink.com 1.10,2013-10-04 05:02:00,
2013-10-04 01:17:00,54.4,53.0,30.07,WNW,288,0.0,0.0,96,0.00,,,0.00,0,weatherlink.com 1.10,2013-10-04 05:17:00,
2013-10-04 01:32:00,54.3,53.0,30.06,WNW,288,0.0,0.0,96,0.00,,,0.00,0,weatherlink.com 1.10,2013-10-04 05:32:00,
2013-10-04 01:47:00,54.2,53.0,30.06,WNW,288,0.0,0.0,96,0.00,,,0.00,0,weatherlink.com 1.10,2013-10-04 05:47:00,
2013-10-04 02:02:00,54.2,53.0,30.06,WNW,288,0.0,0.0,96,0.00,,,0.00,0,weatherlink.com 1.10,2013-10-04 06:02:00,
2013-10-04 02:17:00,53.8,53.0,30.06,WNW,288,0.0,0.0,96,0.00,,,0.00,0,weatherlink.com 1.10,2013-10-04 06:17:00,
2013-10-04 02:32:00,53.6,53.0,30.05,WNW,288,0.0,0.0,96,0.00,,,0.00,0,weatherlink.com 1.10,2013-10-04 06:32:00,
2013-10-04 02:47:00,53.5,52.0,30.05,WNW,288,0.0,0.0,96,0.00,,,0.00,0,weatherlink.com 1.10,2013-10-04 06:47:00,
2013-10-04 03:02:00,53.4,52.0,30.05,WNW,288,0.0,0.0,96,0.00,,,0.00,0,weatherlink.com 1.10,2013-10-04 07:02:00,
2013-10-04 03:17:00,53.3,53.0,30.05,WNW,288,0.0,0.0,97,0.00,,,0.00,0,weatherlink.com 1.10,2013-10-04 07:17:00,
2013-10-04 03:32:00,53.2,52.0,30.04,WNW,288,0.0,0.0,97,0.00,,,0.00,0,weatherlink.com 1.10,2013-10-04 07:32:00,
2013-10-04 03:47:00,53.3,53.0,30.04,WNW,288,0.0,0.0,97,0.00,,,0.00,0,weatherlink.com 1.10,2013-10-04 07:47:00,
2013-10-04 04:02:00,53.1,52.0,30.05,WNW,288,1.0,1.0,97,0.00,,,0.00,0,weatherlink.com 1.10,2013-10-04 08:02:00,
2013-10-04 04:17:00,53.1,52.0,30.04,WNW,288,0.0,0.0,97,0.00,,,0.00,0,weatherlink.com 1.10,2013-10-04 08:17:00,
2013-10-04 04:32:00,53.2,52.0,30.05,WNW,288,0.0,1.0,97,0.00,,,0.00,0,weatherlink.com 1.10,2013-10-04 08:32:00,
2013-10-04 04:47:00,53.1,52.0,30.05,WNW,288,0.0,0.0,97,0.00,,,0.00,0,weatherlink.com 1.10,2013-10-04 08:47:00,
2013-10-04 05:02:00,53.0,52.0,30.05,WNW,288,0.0,1.0,97,0.00,,,0.00,0,weatherlink.com 1.10,2013-10-04 09:02:00,
2013-10-04 05:17:00,53.1,52.0,30.05,WNW,288,0.0,0.0,97,0.00,,,0.00,0,weatherlink.com 1.10,2013-10-04 09:17:00,
2013-10-04 05:32:00,53.4,53.0,30.05,WNW,288,0.0,1.0,97,0.00,,,0.00,0,weatherlink.com 1.10,2013-10-04 09:32:00,
2013-10-04 05:47:00,54.0,53.0,30.05,WNW,288,0.0,1.0,97,0.00,,,0.00,0,weatherlink.com 1.10,2013-10-04 09:47:00,
2013-10-04 06:03:00,54.4,54.0,30.05,WNW,288,0.0,1.0,97,0.00,,,0.00,0,weatherlink.com 1.10,2013-10-04 10:03:00,
2013-10-04 06:18:00,54.4,54.0,30.05,WNW,288,0.0,1.0,97,0.00,,,0.00,0,weatherlink.com 1.10,2013-10-04 10:18:00,
2013-10-04 06:33:00,54.3,54.0,30.05,WNW,288,0.0,1.0,97,0.00,,,0.00,0,weatherlink.com 1.10,2013-10-04 10:33:00,
2013-10-04 06:48:00,54.2,53.0,30.05,WNW,288,0.0,0.0,97,0.00,,,0.00,0,weatherlink.com 1.10,2013-10-04 10:48:00,
2013-10-04 07:03:00,54.3,54.0,30.05,WNW,288,0.0,1.0,97,0.00,,,0.00,9,weatherlink.com 1.10,2013-10-04 11:03:00,
2013-10-04 07:33:00,54.4,54.0,30.06,WNW,288,0.0,1.0,97,0.00,,,0.00,23,weatherlink.com 1.10,2013-10-04 11:33:00,
2013-10-04 07:49:00,54.9,54.0,30.05,WNW,288,0.0,0.0,97,0.00,,,0.00,53,weatherlink.com 1.10,2013-10-04 11:49:00,
2013-10-04 08:05:00,55.9,55.0,30.05,WNW,288,0.0,0.0,97,0.00,,,0.00,63,weatherlink.com 1.10,2013-10-04 12:05:00,
2013-10-04 08:19:00,56.6,56.0,30.06,WNW,288,0.0,1.0,96,0.00,,,0.00,56,weatherlink.com 1.10,2013-10-04 12:19:00,
2013-10-04 08:35:00,57.7,56.0,30.06,WNW,288,0.0,0.0,95,0.00,,,0.00,104,weatherlink.com 1.10,2013-10-04 12:35:00,
2013-10-04 08:49:00,58.6,57.0,30.07,WNW,288,0.0,0.0,94,0.00,,,0.00,70,weatherlink.com 1.10,2013-10-04 12:49:00,
2013-10-04 09:05:00,59.2,57.0,30.07,WNW,288,0.0,0.0,93,0.00,,,0.00,76,weatherlink.com 1.10,2013-10-04 13:05:00,
2013-10-04 09:20:00,59.8,58.0,30.06,WNW,288,0.0,1.0,93,0.00,,,0.00,148,weatherlink.com 1.10,2013-10-04 13:20:00,
2013-10-04 09:35:00,60.1,58.0,30.06,North,355,0.0,2.0,92,0.00,,,0.00,206,weatherlink.com 1.10,2013-10-04 13:35:00,
2013-10-04 09:50:00,61.1,58.0,30.05,North,355,0.0,0.0,90,0.00,,,0.00,165,weatherlink.com 1.10,2013-10-04 13:50:00,
2013-10-04 10:05:00,62.8,59.0,30.05,North,355,0.0,0.0,88,0.00,,,0.00,234,weatherlink.com 1.10,2013-10-04 14:05:00,
2013-10-04 10:20:00,64.5,61.0,30.05,North,355,0.0,1.0,87,0.00,,,0.00,258,weatherlink.com 1.10,2013-10-04 14:20:00,
2013-10-04 10:36:00,65.6,61.0,30.04,North,355,0.0,1.0,86,0.00,,,0.00,281,weatherlink.com 1.10,2013-10-04 14:36:00,
2013-10-04 10:51:00,66.4,62.0,30.04,North,355,0.0,0.0,86,0.00,,,0.00,227,weatherlink.com 1.10,2013-10-04 14:51:00,
2013-10-04 11:06:00,67.9,63.0,30.04,North,355,0.0,1.0,84,0.00,,,0.00,404,weatherlink.com 1.10,2013-10-04 15:06:00,
2013-10-04 11:21:00,68.3,63.0,30.03,North,5,0.0,2.0,84,0.00,,,0.00,285,weatherlink.com 1.10,2013-10-04 15:21:00,
2013-10-04 11:36:00,68.8,64.0,30.03,East,89,0.0,3.0,84,0.00,,,0.00,241,weatherlink.com 1.10,2013-10-04 15:36:00,
2013-10-04 11:51:00,69.8,65.0,30.03,East,89,0.0,1.0,84,0.00,,,0.00,367,weatherlink.com 1.10,2013-10-04 15:51:00,
2013-10-04 12:07:00,70.7,65.0,30.03,South,179,2.0,4.0,83,0.00,,,0.00,251,weatherlink.com 1.10,2013-10-04 16:07:00,
2013-10-04 12:22:00,72.3,66.0,30.03,SSW,207,0.0,4.0,80,0.00,,,0.00,265,weatherlink.com 1.10,2013-10-04 16:22:00,
2013-10-04 12:37:00,72.5,66.0,30.02,WSW,238,1.0,3.0,79,0.00,,,0.00,281,weatherlink.com 1.10,2013-10-04 16:37:00,
2013-10-04 12:52:00,73.4,66.0,30.02,SSW,198,0.0,4.0,78,0.00,,,0.00,606,weatherlink.com 1.10,2013-10-04 16:52:00,
2013-10-04 13:07:00,75.2,67.0,30.01,SSW,206,0.0,4.0,75,0.00,,,0.00,643,weatherlink.com 1.10,2013-10-04 17:07:00,
2013-10-04 13:22:00,74.2,67.0,30.00,SE,142,0.0,4.0,77,0.00,,,0.00,450,weatherlink.com 1.10,2013-10-04 17:22:00,
2013-10-04 13:37:00,73.2,66.0,30.00,North,351,5.0,6.0,78,0.00,,,0.00,214,weatherlink.com 1.10,2013-10-04 17:37:00,
2013-10-04 14:08:00,73.6,66.0,29.99,North,9,1.0,7.0,78,0.00,,,0.00,613,weatherlink.com 1.10,2013-10-04 18:08:00,
2013-10-04 14:23:00,72.9,66.0,29.99,NNE,31,2.0,9.0,78,0.00,,,0.00,248,weatherlink.com 1.10,2013-10-04 18:23:00,
2013-10-04 14:38:00,72.9,66.0,29.99,North,351,3.0,7.0,78,0.00,,,0.00,279,weatherlink.com 1.10,2013-10-04 18:38:00,
2013-10-04 14:53:00,73.1,66.0,29.99,North,350,1.0,9.0,77,0.00,,,0.00,645,weatherlink.com 1.10,2013-10-04 18:53:00,
2013-10-04 15:08:00,73.8,66.0,29.98,NE,40,2.0,8.0,76,0.00,,,0.00,527,weatherlink.com 1.10,2013-10-04 19:08:00,
2013-10-04 15:25:00,73.6,66.0,29.98,North,355,3.0,6.0,77,0.00,,,0.00,513,weatherlink.com 1.10,2013-10-04 19:25:00,
2013-10-04 15:38:00,72.9,65.0,29.98,NE,46,4.0,10.0,75,0.00,,,0.00,438,weatherlink.com 1.10,2013-10-04 19:38:00,
2013-10-04 15:55:00,71.9,64.0,29.99,NNE,15,6.0,8.0,77,0.00,,,0.00,385,weatherlink.com 1.10,2013-10-04 19:55:00,
2013-10-04 16:09:00,70.7,64.0,29.99,NNE,12,3.0,11.0,78,0.00,,,0.00,160,weatherlink.com 1.10,2013-10-04 20:09:00,
2013-10-04 16:25:00,70.2,64.0,29.99,NE,36,9.0,9.0,80,0.00,,,0.00,91,weatherlink.com 1.10,2013-10-04 20:25:00,
2013-10-04 16:39:00,69.7,63.0,30.00,NNW,332,0.0,6.0,80,0.00,,,0.00,91,weatherlink.com 1.10,2013-10-04 20:39:00,
2013-10-04 16:55:00,69.6,63.0,30.00,North,5,2.0,5.0,80,0.00,,,0.00,100,weatherlink.com 1.10,2013-10-04 20:55:00,
2013-10-04 17:09:00,69.2,63.0,30.00,North,355,0.0,9.0,81,0.00,,,0.00,60,weatherlink.com 1.10,2013-10-04 21:09:00,
2013-10-04 17:25:00,68.3,63.0,30.01,NE,42,0.0,5.0,82,0.00,,,0.00,67,weatherlink.com 1.10,2013-10-04 21:25:00,
2013-10-04 17:40:00,67.9,63.0,30.00,NNE,18,0.0,5.0,83,0.00,,,0.00,37,weatherlink.com 1.10,2013-10-04 21:40:00,
2013-10-04 17:55:00,67.3,62.0,30.00,NNE,22,0.0,4.0,84,0.00,,,0.00,16,weatherlink.com 1.10,2013-10-04 21:55:00,
2013-10-04 18:10:00,66.8,62.0,30.02,NNE,23,0.0,1.0,85,0.00,,,0.00,7,weatherlink.com 1.10,2013-10-04 22:10:00,
2013-10-04 18:25:00,66.4,62.0,30.01,NNE,23,0.0,1.0,85,0.00,,,0.00,0,weatherlink.com 1.10,2013-10-04 22:25:00,
2013-10-04 18:40:00,66.0,62.0,30.02,NNE,23,0.0,1.0,86,0.00,,,0.00,0,weatherlink.com 1.10,2013-10-04 22:40:00,
2013-10-04 18:55:00,65.6,62.0,30.02,NNE,23,0.0,1.0,87,0.00,,,0.00,0,weatherlink.com 1.10,2013-10-04 22:55:00,
2013-10-04 19:10:00,65.0,61.0,30.02,NNE,23,0.0,1.0,88,0.00,,,0.00,0,weatherlink.com 1.10,2013-10-04 23:10:00,
2013-10-04 19:25:00,64.3,61.0,30.03,NNE,19,2.0,6.0,89,0.00,,,0.00,0,weatherlink.com 1.10,2013-10-04 23:25:00,
2013-10-04 19:40:00,63.7,61.0,30.03,NNE,15,0.0,5.0,89,0.00,,,0.00,0,weatherlink.com 1.10,2013-10-04 23:40:00,
2013-10-04 19:56:00,63.2,60.0,30.03,NNE,15,0.0,5.0,90,0.00,,,0.00,0,weatherlink.com 1.10,2013-10-04 23:56:00,
2013-10-04 20:10:00,63.0,60.0,30.04,NNE,15,0.0,1.0,91,0.00,,,0.00,0,weatherlink.com 1.10,2013-10-05 00:10:00,
2013-10-04 20:26:00,62.4,60.0,30.04,NNE,15,1.0,1.0,91,0.00,,,0.00,0,weatherlink.com 1.10,2013-10-05 00:26:00,
2013-10-04 20:41:00,61.8,59.0,30.04,NNE,16,0.0,4.0,91,0.00,,,0.00,0,weatherlink.com 1.10,2013-10-05 00:41:00,
2013-10-04 20:56:00,61.6,59.0,30.04,NNE,16,0.0,1.0,92,0.00,,,0.00,0,weatherlink.com 1.10,2013-10-05 00:56:00,
2013-10-04 21:11:00,61.2,59.0,30.05,NNE,25,0.0,3.0,92,0.00,,,0.00,0,weatherlink.com 1.10,2013-10-05 01:11:00,
2013-10-04 21:27:00,61.0,59.0,30.04,NE,34,0.0,1.0,92,0.00,,,0.00,0,weatherlink.com 1.10,2013-10-05 01:27:00,
2013-10-04 21:42:00,60.6,59.0,30.04,NE,34,0.0,0.0,93,0.00,,,0.00,0,weatherlink.com 1.10,2013-10-05 01:42:00,
2013-10-04 21:57:00,60.2,58.0,30.04,NE,34,0.0,0.0,93,0.00,,,0.00,0,weatherlink.com 1.10,2013-10-05 01:57:00,
2013-10-04 22:12:00,59.9,58.0,30.04,NE,34,0.0,0.0,94,0.00,,,0.00,0,weatherlink.com 1.10,2013-10-05 02:12:00,
2013-10-04 22:27:00,59.8,58.0,30.04,NE,34,0.0,1.0,95,0.00,,,0.00,0,weatherlink.com 1.10,2013-10-05 02:27:00,
2013-10-04 22:42:00,59.4,58.0,30.05,NE,34,0.0,0.0,95,0.00,,,0.00,0,weatherlink.com 1.10,2013-10-05 02:42:00,
2013-10-04 22:57:00,59.6,58.0,30.05,NE,34,0.0,0.0,95,0.00,,,0.00,0,weatherlink.com 1.10,2013-10-05 02:57:00,
2013-10-04 23:12:00,59.9,59.0,30.04,NNE,15,2.0,4.0,95,0.00,,,0.00,0,weatherlink.com 1.10,2013-10-05 03:12:00,
2013-10-04 23:28:00,60.0,59.0,30.04,NNE,15,0.0,1.0,95,0.00,,,0.00,0,weatherlink.com 1.10,2013-10-05 03:28:00,
2013-10-04 23:42:00,60.0,58.0,30.04,NE,34,2.0,4.0,94,0.00,,,0.00,0,weatherlink.com 1.10,2013-10-05 03:42:00,
2013-10-04 23:58:00,59.9,59.0,30.04,NNE,17,0.0,6.0,95,0.00,,,0.00,0,weatherlink.com 1.10,2013-10-05 03:58:00,